owner,sensor,date,latitude,longitude,vertical_datum,wind_speed,wind_to_direction,wind_speed_of_gust,qcFlag 
TCOON,ioos:station:TCOON:031:1,2009-06-01T00:00:00Z,28.4073,-96.7122,0.0,5.4,101.0,7.3,'11111222,11111222,11111222' 
TCOON,ioos:station:TCOON:031:1,2009-06-01T01:00:00Z,28.4073,-96.7122,0.0,3.9,116.0,5.9,'11111222,11111222,11111222' 
TCOON,ioos:station:TCOON:031:1,2009-06-01T03:00:00Z,28.4073,-96.7122,0.0,2.8,100.0,4.0,'11111222,11111222,11111222' 
TCOON,ioos:station:TCOON:031:1,2009-06-01T04:00:00Z,28.4073,-96.7122,0.0,2.3,112.0,3.2,'11111222,11111222,11111222' 
TCOON,ioos:station:TCOON:031:1,2009-06-01T05:00:00Z,28.4073,-96.7122,0.0,1.7,96.0,2.9,'11111222,11111222,11111222' 
TCOON,ioos:station:TCOON:031:1,2009-06-01T06:00:00Z,28.4073,-96.7122,0.0,3.8,110.0,4.9,'11111222,11111222,11111222' 
TCOON,ioos:station:TCOON:031:1,2009-06-01T07:00:00Z,28.4073,-96.7122,0.0,3.6,111.0,5.2,'11111222,11111222,11111222' 
TCOON,ioos:station:TCOON:031:1,2009-06-01T08:00:00Z,28.4073,-96.7122,0.0,3.4,111.0,4.3,'11111222,11111222,11111222' 
TCOON,ioos:station:TCOON:031:1,2009-06-01T09:00:00Z,28.4073,-96.7122,0.0,2.7,106.0,3.6,'11111222,11111222,11111222' 
TCOON,ioos:station:TCOON:031:1,2009-06-01T10:00:00Z,28.4073,-96.7122,0.0,2.7,106.0,4.0,'11111222,11111222,11111222' 
TCOON,ioos:station:TCOON:031:1,2009-06-01T11:00:00Z,28.4073,-96.7122,0.0,1.9,86.0,2.7,'11111222,11111222,11111222' 
TCOON,ioos:station:TCOON:031:1,2009-06-01T12:00:00Z,28.4073,-96.7122,0.0,2.0,77.0,2.5,'11111222,11111222,11111222' 
TCOON,ioos:station:TCOON:031:1,2009-06-01T13:00:00Z,28.4073,-96.7122,0.0,2.3,104.0,2.8,'11111222,11111222,11111222' 
TCOON,ioos:station:TCOON:031:1,2009-06-01T14:00:00Z,28.4073,-96.7122,0.0,5.4,111.0,6.7,'11111222,11111222,11111222' 
TCOON,ioos:station:TCOON:031:1,2009-06-01T15:00:00Z,28.4073,-96.7122,0.0,5.4,106.0,6.9,'11111222,11111222,11111222' 
TCOON,ioos:station:TCOON:031:1,2009-06-01T16:00:00Z,28.4073,-96.7122,0.0,4.8,106.0,5.6,'11111222,11111222,11111222' 
TCOON,ioos:station:TCOON:031:1,2009-06-01T17:00:00Z,28.4073,-96.7122,0.0,5.0,116.0,6.2,'11111222,11111222,11111222' 
TCOON,ioos:station:TCOON:031:1,2009-06-01T18:00:00Z,28.4073,-96.7122,0.0,4.7,120.0,4.8,'11111222,11111222,11111222' 
TCOON,ioos:station:TCOON:031:1,2009-06-01T19:00:00Z,28.4073,-96.7122,0.0,6.2,115.0,8.6,'11111222,11111222,11111222' 
TCOON,ioos:station:TCOON:031:1,2009-06-01T20:00:00Z,28.4073,-96.7122,0.0,7.4,119.0,9.1,'11111222,11111222,11111222' 
TCOON,ioos:station:TCOON:031:1,2009-06-01T21:00:00Z,28.4073,-96.7122,0.0,7.1,109.0,9.2,'11111222,11111222,11111222' 
TCOON,ioos:station:TCOON:031:1,2009-06-01T22:00:00Z,28.4073,-96.7122,0.0,7.9,106.0,10.5,'11111222,11111222,11111222' 
TCOON,ioos:station:TCOON:031:1,2009-06-01T23:00:00Z,28.4073,-96.7122,0.0,5.8,110.0,7.4,'11111222,11111222,11111222' 
TCOON,ioos:station:TCOON:031:1,2009-06-02T00:00:00Z,28.4073,-96.7122,0.0,5.8,103.0,7.9,'11111222,11111222,11111222' 
TCOON,ioos:station:TCOON:031:1,2009-06-02T01:00:00Z,28.4073,-96.7122,0.0,5.2,109.0,8.3,'11111222,11111222,11111222' 
TCOON,ioos:station:TCOON:031:1,2009-06-02T02:00:00Z,28.4073,-96.7122,0.0,5.7,109.0,7.6,'11111222,11111222,11111222' 
TCOON,ioos:station:TCOON:031:1,2009-06-02T03:00:00Z,28.4073,-96.7122,0.0,5.5,112.0,7.4,'11111222,11111222,11111222' 
TCOON,ioos:station:TCOON:031:1,2009-06-02T04:00:00Z,28.4073,-96.7122,0.0,3.8,113.0,5.4,'11111222,11111222,11111222' 
TCOON,ioos:station:TCOON:031:1,2009-06-02T05:00:00Z,28.4073,-96.7122,0.0,3.8,110.0,5.0,'11111222,11111222,11111222' 
TCOON,ioos:station:TCOON:031:1,2009-06-02T06:00:00Z,28.4073,-96.7122,0.0,3.9,114.0,4.5,'11111222,11111222,11111222' 
TCOON,ioos:station:TCOON:031:1,2009-06-02T07:00:00Z,28.4073,-96.7122,0.0,4.4,117.0,5.1,'11111222,11111222,11111222' 
TCOON,ioos:station:TCOON:031:1,2009-06-02T08:00:00Z,28.4073,-96.7122,0.0,3.3,114.0,4.0,'11111222,11111222,11111222' 
TCOON,ioos:station:TCOON:031:1,2009-06-02T09:00:00Z,28.4073,-96.7122,0.0,3.8,123.0,4.3,'11111222,11111222,11111222' 
TCOON,ioos:station:TCOON:031:1,2009-06-02T10:00:00Z,28.4073,-96.7122,0.0,1.5,85.0,2.2,'11111222,11111222,11111222' 
TCOON,ioos:station:TCOON:031:1,2009-06-02T11:00:00Z,28.4073,-96.7122,0.0,2.4,107.0,3.0,'11111222,11111222,11111222' 
TCOON,ioos:station:TCOON:031:1,2009-06-02T12:00:00Z,28.4073,-96.7122,0.0,2.5,110.0,3.3,'11111222,11111222,11111222' 
TCOON,ioos:station:TCOON:031:1,2009-06-02T13:00:00Z,28.4073,-96.7122,0.0,3.4,119.0,4.8,'11111222,11111222,11111222' 
TCOON,ioos:station:TCOON:031:1,2009-06-02T14:00:00Z,28.4073,-96.7122,0.0,4.3,106.0,6.1,'11111222,11111222,11111222' 
TCOON,ioos:station:TCOON:031:1,2009-06-02T15:00:00Z,28.4073,-96.7122,0.0,6.1,129.0,7.1,'11111222,11111222,11111222' 
TCOON,ioos:station:TCOON:031:1,2009-06-02T16:00:00Z,28.4073,-96.7122,0.0,5.8,143.0,6.4,'11111222,11111222,11111222' 
TCOON,ioos:station:TCOON:031:1,2009-06-02T17:00:00Z,28.4073,-96.7122,0.0,6.5,139.0,7.8,'11111222,11111222,11111222' 
TCOON,ioos:station:TCOON:031:1,2009-06-02T18:00:00Z,28.4073,-96.7122,0.0,5.6,144.0,6.4,'11111222,11111222,11111222' 
TCOON,ioos:station:TCOON:031:1,2009-06-02T19:00:00Z,28.4073,-96.7122,0.0,6.6,150.0,7.6,'11111222,11111222,11111222' 
TCOON,ioos:station:TCOON:031:1,2009-06-02T20:00:00Z,28.4073,-96.7122,0.0,6.4,141.0,7.4,'11111222,11111222,11111222' 
TCOON,ioos:station:TCOON:031:1,2009-06-02T21:00:00Z,28.4073,-96.7122,0.0,6.6,137.0,7.6,'11111222,11111222,11111222' 
TCOON,ioos:station:TCOON:031:1,2009-06-02T22:00:00Z,28.4073,-96.7122,0.0,7.4,135.0,9.6,'11111222,11111222,11111222' 
TCOON,ioos:station:TCOON:031:1,2009-06-02T23:00:00Z,28.4073,-96.7122,0.0,7.7,125.0,8.9,'11111222,11111222,11111222' 
TCOON,ioos:station:TCOON:031:1,2009-06-03T00:00:00Z,28.4073,-96.7122,0.0,5.7,122.0,7.9,'11111222,11111222,11111222' 
TCOON,ioos:station:TCOON:031:1,2009-06-03T01:00:00Z,28.4073,-96.7122,0.0,5.0,119.0,6.5,'11111222,11111222,11111222' 
TCOON,ioos:station:TCOON:031:1,2009-06-03T02:00:00Z,28.4073,-96.7122,0.0,4.8,117.0,5.9,'11111222,11111222,11111222' 
TCOON,ioos:station:TCOON:031:1,2009-06-03T03:00:00Z,28.4073,-96.7122,0.0,3.7,111.0,6.1,'11111222,11111222,11111222' 
TCOON,ioos:station:TCOON:031:1,2009-06-03T04:00:00Z,28.4073,-96.7122,0.0,3.9,109.0,5.4,'11111222,11111222,11111222' 
TCOON,ioos:station:TCOON:031:1,2009-06-03T05:00:00Z,28.4073,-96.7122,0.0,3.2,108.0,3.7,'11111222,11111222,11111222' 
TCOON,ioos:station:TCOON:031:1,2009-06-03T06:00:00Z,28.4073,-96.7122,0.0,2.5,106.0,3.2,'11111222,11111222,11111222' 
TCOON,ioos:station:TCOON:031:1,2009-06-03T07:00:00Z,28.4073,-96.7122,0.0,2.9,118.0,3.7,'11111222,11111222,11111222' 
TCOON,ioos:station:TCOON:031:1,2009-06-03T08:00:00Z,28.4073,-96.7122,0.0,2.1,104.0,2.7,'11111222,11111222,11111222' 
TCOON,ioos:station:TCOON:031:1,2009-06-03T09:00:00Z,28.4073,-96.7122,0.0,4.1,121.0,4.8,'11111222,11111222,11111222' 
TCOON,ioos:station:TCOON:031:1,2009-06-03T10:00:00Z,28.4073,-96.7122,0.0,5.2,140.0,5.8,'11111222,11111222,11111222' 
TCOON,ioos:station:TCOON:031:1,2009-06-03T11:00:00Z,28.4073,-96.7122,0.0,2.1,281.0,4.1,'11111222,11111222,11111222' 
TCOON,ioos:station:TCOON:031:1,2009-06-03T12:00:00Z,28.4073,-96.7122,0.0,1.4,348.0,3.0,'11111222,11111222,11111222' 
TCOON,ioos:station:TCOON:031:1,2009-06-03T13:00:00Z,28.4073,-96.7122,0.0,2.0,97.0,2.7,'11111222,11111222,11111222' 
TCOON,ioos:station:TCOON:031:1,2009-06-03T14:00:00Z,28.4073,-96.7122,0.0,3.3,120.0,4.5,'11111222,11111222,11111222' 
TCOON,ioos:station:TCOON:031:1,2009-06-03T15:00:00Z,28.4073,-96.7122,0.0,4.0,159.0,4.5,'11111222,11111222,11111222' 
TCOON,ioos:station:TCOON:031:1,2009-06-03T16:00:00Z,28.4073,-96.7122,0.0,5.0,153.0,5.9,'11111222,11111222,11111222' 
TCOON,ioos:station:TCOON:031:1,2009-06-03T17:00:00Z,28.4073,-96.7122,0.0,4.9,143.0,5.2,'11111222,11111222,11111222' 
TCOON,ioos:station:TCOON:031:1,2009-06-03T19:00:00Z,28.4073,-96.7122,0.0,5.1,135.0,5.5,'11111222,11111222,11111222' 
TCOON,ioos:station:TCOON:031:1,2009-06-03T20:00:00Z,28.4073,-96.7122,0.0,6.7,149.0,7.9,'11111222,11111222,11111222' 
TCOON,ioos:station:TCOON:031:1,2009-06-03T21:00:00Z,28.4073,-96.7122,0.0,4.8,166.0,8.5,'11111222,11111222,11111222' 
TCOON,ioos:station:TCOON:031:1,2009-06-03T22:00:00Z,28.4073,-96.7122,0.0,2.3,115.0,3.2,'11111222,11111222,11111222' 
TCOON,ioos:station:TCOON:031:1,2009-06-03T23:00:00Z,28.4073,-96.7122,0.0,5.3,116.0,6.1,'11111222,11111222,11111222' 
TCOON,ioos:station:TCOON:031:1,2009-06-04T00:00:00Z,28.4073,-96.7122,0.0,4.8,124.0,5.1,'11111222,11111222,11111222' 
TCOON,ioos:station:TCOON:031:1,2009-06-04T01:00:00Z,28.4073,-96.7122,0.0,2.8,138.0,3.3,'11111222,11111222,11111222' 
TCOON,ioos:station:TCOON:031:1,2009-06-04T02:00:00Z,28.4073,-96.7122,0.0,5.0,136.0,5.6,'11111222,11111222,11111222' 
TCOON,ioos:station:TCOON:031:1,2009-06-04T03:00:00Z,28.4073,-96.7122,0.0,7.3,170.0,7.7,'11111222,11111222,11111222' 
TCOON,ioos:station:TCOON:031:1,2009-06-04T04:00:00Z,28.4073,-96.7122,0.0,8.4,205.0,9.9,'11111222,11111222,11111222' 
TCOON,ioos:station:TCOON:031:1,2009-06-04T05:00:00Z,28.4073,-96.7122,0.0,4.4,249.0,5.3,'11111222,11111222,11111222' 
TCOON,ioos:station:TCOON:031:1,2009-06-04T06:00:00Z,28.4073,-96.7122,0.0,0.8,270.0,1.3,'11111222,11111222,11111222' 
TCOON,ioos:station:TCOON:031:1,2009-06-04T07:00:00Z,28.4073,-96.7122,0.0,1.6,276.0,2.3,'11111222,11111222,11111222' 
TCOON,ioos:station:TCOON:031:1,2009-06-04T08:00:00Z,28.4073,-96.7122,0.0,1.8,297.0,2.4,'11111222,11111222,11111222' 
TCOON,ioos:station:TCOON:031:1,2009-06-04T09:00:00Z,28.4073,-96.7122,0.0,1.4,269.0,1.5,'11111222,11111222,11111222' 
TCOON,ioos:station:TCOON:031:1,2009-06-04T10:00:00Z,28.4073,-96.7122,0.0,2.6,283.0,3.2,'11111222,11111222,11111222' 
TCOON,ioos:station:TCOON:031:1,2009-06-04T11:00:00Z,28.4073,-96.7122,0.0,1.7,298.0,2.3,'11111222,11111222,11111222' 
TCOON,ioos:station:TCOON:031:1,2009-06-04T12:00:00Z,28.4073,-96.7122,0.0,0.8,291.0,1.2,'11111222,11111222,11111222' 
TCOON,ioos:station:TCOON:031:1,2009-06-04T13:00:00Z,28.4073,-96.7122,0.0,1.9,300.0,2.7,'11111222,11111222,11111222' 
TCOON,ioos:station:TCOON:031:1,2009-06-04T14:00:00Z,28.4073,-96.7122,0.0,4.1,316.0,5.5,'11111222,11111222,11111222' 
TCOON,ioos:station:TCOON:031:1,2009-06-04T15:00:00Z,28.4073,-96.7122,0.0,2.7,321.0,6.0,'11111222,11111222,11111222' 
TCOON,ioos:station:TCOON:031:1,2009-06-04T16:00:00Z,28.4073,-96.7122,0.0,3.9,344.0,6.1,'11111222,11111222,11111222' 
TCOON,ioos:station:TCOON:031:1,2009-06-04T17:00:00Z,28.4073,-96.7122,0.0,1.9,347.0,5.5,'11111222,11111222,11111222' 
TCOON,ioos:station:TCOON:031:1,2009-06-04T18:00:00Z,28.4073,-96.7122,0.0,5.2,324.0,7.5,'11111222,11111222,11111222' 
TCOON,ioos:station:TCOON:031:1,2009-06-04T19:00:00Z,28.4073,-96.7122,0.0,4.9,325.0,7.7,'11111222,11111222,11111222' 
TCOON,ioos:station:TCOON:031:1,2009-06-04T20:00:00Z,28.4073,-96.7122,0.0,4.2,316.0,7.2,'11111222,11111222,11111222' 
TCOON,ioos:station:TCOON:031:1,2009-06-04T21:00:00Z,28.4073,-96.7122,0.0,4.8,342.0,8.5,'11111222,11111222,11111222' 
TCOON,ioos:station:TCOON:031:1,2009-06-04T22:00:00Z,28.4073,-96.7122,0.0,4.2,301.0,5.4,'11111222,11111222,11111222' 
TCOON,ioos:station:TCOON:031:1,2009-06-04T23:00:00Z,28.4073,-96.7122,0.0,4.6,348.0,6.6,'11111222,11111222,11111222' 
TCOON,ioos:station:TCOON:031:1,2009-06-05T00:00:00Z,28.4073,-96.7122,0.0,3.7,326.0,5.4,'11111222,11111222,11111222' 
TCOON,ioos:station:TCOON:031:1,2009-06-05T01:00:00Z,28.4073,-96.7122,0.0,1.8,352.0,2.3,'11111222,11111222,11111222' 
TCOON,ioos:station:TCOON:031:1,2009-06-05T02:00:00Z,28.4073,-96.7122,0.0,1.9,6.0,2.6,'11111222,11111222,11111222' 
TCOON,ioos:station:TCOON:031:1,2009-06-05T03:00:00Z,28.4073,-96.7122,0.0,1.7,23.0,2.6,'11111222,11111222,11111222' 
TCOON,ioos:station:TCOON:031:1,2009-06-05T04:00:00Z,28.4073,-96.7122,0.0,1.6,17.0,2.2,'11111222,11111222,11111222' 
TCOON,ioos:station:TCOON:031:1,2009-06-05T05:00:00Z,28.4073,-96.7122,0.0,1.5,14.0,1.8,'11111222,11111222,11111222' 
TCOON,ioos:station:TCOON:031:1,2009-06-05T06:00:00Z,28.4073,-96.7122,0.0,2.3,5.0,2.7,'11111222,11111222,11111222' 
TCOON,ioos:station:TCOON:031:1,2009-06-05T07:00:00Z,28.4073,-96.7122,0.0,2.2,4.0,2.3,'11111222,11111222,11111222' 
TCOON,ioos:station:TCOON:031:1,2009-06-05T08:00:00Z,28.4073,-96.7122,0.0,2.4,15.0,3.3,'11111222,11111222,11111222' 
TCOON,ioos:station:TCOON:031:1,2009-06-05T09:00:00Z,28.4073,-96.7122,0.0,1.6,15.0,2.2,'11111222,11111222,11111222' 
TCOON,ioos:station:TCOON:031:1,2009-06-05T10:00:00Z,28.4073,-96.7122,0.0,1.8,25.0,2.3,'11111222,11111222,11111222' 
TCOON,ioos:station:TCOON:031:1,2009-06-05T11:00:00Z,28.4073,-96.7122,0.0,1.1,4.0,1.3,'11111222,11111222,11111222' 
TCOON,ioos:station:TCOON:031:1,2009-06-05T12:00:00Z,28.4073,-96.7122,0.0,1.1,20.0,1.2,'11111222,11111222,11111222' 
TCOON,ioos:station:TCOON:031:1,2009-06-05T13:00:00Z,28.4073,-96.7122,0.0,2.0,52.0,2.6,'11111222,11111222,11111222' 
TCOON,ioos:station:TCOON:031:1,2009-06-05T14:00:00Z,28.4073,-96.7122,0.0,4.0,65.0,5.1,'11111222,11111222,11111222' 
TCOON,ioos:station:TCOON:031:1,2009-06-05T15:00:00Z,28.4073,-96.7122,0.0,3.0,77.0,4.1,'11111222,11111222,11111222' 
TCOON,ioos:station:TCOON:031:1,2009-06-05T16:00:00Z,28.4073,-96.7122,0.0,1.1,236.0,2.0,'11111222,11111222,11111222' 
TCOON,ioos:station:TCOON:031:1,2009-06-05T17:00:00Z,28.4073,-96.7122,0.0,2.5,89.0,3.8,'11111222,11111222,11111222' 
TCOON,ioos:station:TCOON:031:1,2009-06-05T18:00:00Z,28.4073,-96.7122,0.0,3.9,143.0,5.1,'11111222,11111222,11111222' 
TCOON,ioos:station:TCOON:031:1,2009-06-05T19:00:00Z,28.4073,-96.7122,0.0,3.5,126.0,4.4,'11111222,11111222,11111222' 
TCOON,ioos:station:TCOON:031:1,2009-06-05T20:00:00Z,28.4073,-96.7122,0.0,3.4,143.0,5.1,'11111222,11111222,11111222' 
TCOON,ioos:station:TCOON:031:1,2009-06-05T21:00:00Z,28.4073,-96.7122,0.0,3.9,129.0,5.1,'11111222,11111222,11111222' 
TCOON,ioos:station:TCOON:031:1,2009-06-05T22:00:00Z,28.4073,-96.7122,0.0,3.4,104.0,3.7,'11111222,11111222,11111222' 
TCOON,ioos:station:TCOON:031:1,2009-06-05T23:00:00Z,28.4073,-96.7122,0.0,5.3,113.0,6.8,'11111222,11111222,11111222' 
TCOON,ioos:station:TCOON:031:1,2009-06-06T00:00:00Z,28.4073,-96.7122,0.0,4.3,104.0,6.3,'11111222,11111222,11111222' 
TCOON,ioos:station:TCOON:031:1,2009-06-06T01:00:00Z,28.4073,-96.7122,0.0,4.3,101.0,5.6,'11111222,11111222,11111222' 
TCOON,ioos:station:TCOON:031:1,2009-06-06T02:00:00Z,28.4073,-96.7122,0.0,2.9,113.0,3.7,'11111222,11111222,11111222' 
TCOON,ioos:station:TCOON:031:1,2009-06-06T03:00:00Z,28.4073,-96.7122,0.0,2.8,111.0,4.1,'11111222,11111222,11111222' 
TCOON,ioos:station:TCOON:031:1,2009-06-06T04:00:00Z,28.4073,-96.7122,0.0,3.1,114.0,3.9,'11111222,11111222,11111222' 
TCOON,ioos:station:TCOON:031:1,2009-06-06T05:00:00Z,28.4073,-96.7122,0.0,2.5,104.0,3.7,'11111222,11111222,11111222' 
TCOON,ioos:station:TCOON:031:1,2009-06-06T06:00:00Z,28.4073,-96.7122,0.0,2.9,105.0,4.3,'11111222,11111222,11111222' 
TCOON,ioos:station:TCOON:031:1,2009-06-06T07:00:00Z,28.4073,-96.7122,0.0,3.8,115.0,5.0,'11111222,11111222,11111222' 
TCOON,ioos:station:TCOON:031:1,2009-06-06T08:00:00Z,28.4073,-96.7122,0.0,3.8,113.0,4.4,'11111222,11111222,11111222' 
TCOON,ioos:station:TCOON:031:1,2009-06-06T09:00:00Z,28.4073,-96.7122,0.0,3.5,114.0,3.9,'11111222,11111222,11111222' 
TCOON,ioos:station:TCOON:031:1,2009-06-06T10:00:00Z,28.4073,-96.7122,0.0,2.8,109.0,3.2,'11111222,11111222,11111222' 
TCOON,ioos:station:TCOON:031:1,2009-06-06T11:00:00Z,28.4073,-96.7122,0.0,1.8,94.0,2.5,'11111222,11111222,11111222' 
TCOON,ioos:station:TCOON:031:1,2009-06-06T12:00:00Z,28.4073,-96.7122,0.0,2.0,104.0,2.3,'11111222,11111222,11111222' 
TCOON,ioos:station:TCOON:031:1,2009-06-06T13:00:00Z,28.4073,-96.7122,0.0,2.4,106.0,3.0,'11111222,11111222,11111222' 
TCOON,ioos:station:TCOON:031:1,2009-06-06T14:00:00Z,28.4073,-96.7122,0.0,4.4,115.0,5.4,'11111222,11111222,11111222' 
TCOON,ioos:station:TCOON:031:1,2009-06-06T15:00:00Z,28.4073,-96.7122,0.0,4.1,110.0,5.1,'11111222,11111222,11111222' 
TCOON,ioos:station:TCOON:031:1,2009-06-06T16:00:00Z,28.4073,-96.7122,0.0,3.8,120.0,6.2,'11111222,11111222,11111222' 
TCOON,ioos:station:TCOON:031:1,2009-06-06T17:00:00Z,28.4073,-96.7122,0.0,3.6,93.0,5.9,'11111222,11111222,11111222' 
TCOON,ioos:station:TCOON:031:1,2009-06-06T18:00:00Z,28.4073,-96.7122,0.0,3.9,112.0,6.2,'11111222,11111222,11111222' 
TCOON,ioos:station:TCOON:031:1,2009-06-06T19:00:00Z,28.4073,-96.7122,0.0,6.7,122.0,8.1,'11111222,11111222,11111222' 
TCOON,ioos:station:TCOON:031:1,2009-06-06T20:00:00Z,28.4073,-96.7122,0.0,5.6,114.0,8.7,'11111222,11111222,11111222' 
TCOON,ioos:station:TCOON:031:1,2009-06-06T21:00:00Z,28.4073,-96.7122,0.0,7.2,119.0,8.6,'11111222,11111222,11111222' 
TCOON,ioos:station:TCOON:031:1,2009-06-06T22:00:00Z,28.4073,-96.7122,0.0,4.6,113.0,8.0,'11111222,11111222,11111222' 
TCOON,ioos:station:TCOON:031:1,2009-06-06T23:00:00Z,28.4073,-96.7122,0.0,5.0,122.0,7.1,'11111222,11111222,11111222' 
TCOON,ioos:station:TCOON:031:1,2009-06-07T00:00:00Z,28.4073,-96.7122,0.0,6.1,116.0,6.7,'11111222,11111222,11111222' 
TCOON,ioos:station:TCOON:031:1,2009-06-07T01:00:00Z,28.4073,-96.7122,0.0,4.4,111.0,5.8,'11111222,11111222,11111222' 
TCOON,ioos:station:TCOON:031:1,2009-06-07T02:00:00Z,28.4073,-96.7122,0.0,4.1,112.0,4.6,'11111222,11111222,11111222' 
TCOON,ioos:station:TCOON:031:1,2009-06-07T03:00:00Z,28.4073,-96.7122,0.0,3.8,117.0,4.8,'11111222,11111222,11111222' 
TCOON,ioos:station:TCOON:031:1,2009-06-07T04:00:00Z,28.4073,-96.7122,0.0,4.4,116.0,5.1,'11111222,11111222,11111222' 
TCOON,ioos:station:TCOON:031:1,2009-06-07T05:00:00Z,28.4073,-96.7122,0.0,4.1,118.0,4.7,'11111222,11111222,11111222' 
TCOON,ioos:station:TCOON:031:1,2009-06-07T06:00:00Z,28.4073,-96.7122,0.0,4.8,116.0,5.5,'11111222,11111222,11111222' 
TCOON,ioos:station:TCOON:031:1,2009-06-07T07:00:00Z,28.4073,-96.7122,0.0,4.4,115.0,6.0,'11111222,11111222,11111222' 
TCOON,ioos:station:TCOON:031:1,2009-06-07T08:00:00Z,28.4073,-96.7122,0.0,3.7,112.0,4.5,'11111222,11111222,11111222' 
TCOON,ioos:station:TCOON:031:1,2009-06-07T09:00:00Z,28.4073,-96.7122,0.0,4.0,111.0,5.5,'11111222,11111222,11111222' 
TCOON,ioos:station:TCOON:031:1,2009-06-07T10:00:00Z,28.4073,-96.7122,0.0,4.6,110.0,5.2,'11111222,11111222,11111222' 
TCOON,ioos:station:TCOON:031:1,2009-06-07T11:00:00Z,28.4073,-96.7122,0.0,4.7,113.0,5.6,'11111222,11111222,11111222' 
TCOON,ioos:station:TCOON:031:1,2009-06-07T12:00:00Z,28.4073,-96.7122,0.0,4.8,113.0,5.7,'11111222,11111222,11111222' 
TCOON,ioos:station:TCOON:031:1,2009-06-07T13:00:00Z,28.4073,-96.7122,0.0,7.3,125.0,8.1,'11111222,11111222,11111222' 
TCOON,ioos:station:TCOON:031:1,2009-06-07T14:00:00Z,28.4073,-96.7122,0.0,6.8,128.0,8.8,'11111222,11111222,11111222' 
TCOON,ioos:station:TCOON:031:1,2009-06-07T15:00:00Z,28.4073,-96.7122,0.0,8.3,137.0,9.0,'11111222,11111222,11111222' 
TCOON,ioos:station:TCOON:031:1,2009-06-07T16:00:00Z,28.4073,-96.7122,0.0,6.2,135.0,8.9,'11111222,11111222,11111222' 
TCOON,ioos:station:TCOON:031:1,2009-06-07T17:00:00Z,28.4073,-96.7122,0.0,7.3,134.0,7.7,'11111222,11111222,11111222' 
TCOON,ioos:station:TCOON:031:1,2009-06-07T18:00:00Z,28.4073,-96.7122,0.0,7.2,143.0,8.7,'11111222,11111222,11111222' 
TCOON,ioos:station:TCOON:031:1,2009-06-07T19:00:00Z,28.4073,-96.7122,0.0,7.3,130.0,7.9,'11111222,11111222,11111222' 
TCOON,ioos:station:TCOON:031:1,2009-06-07T20:00:00Z,28.4073,-96.7122,0.0,7.6,137.0,9.1,'11111222,11111222,11111222' 
TCOON,ioos:station:TCOON:031:1,2009-06-07T21:00:00Z,28.4073,-96.7122,0.0,7.2,142.0,8.7,'11111222,11111222,11111222' 
TCOON,ioos:station:TCOON:031:1,2009-06-07T22:00:00Z,28.4073,-96.7122,0.0,6.1,115.0,7.3,'11111222,11111222,11111222' 
TCOON,ioos:station:TCOON:031:1,2009-06-07T23:00:00Z,28.4073,-96.7122,0.0,6.4,110.0,8.0,'11111222,11111222,11111222' 
TCOON,ioos:station:TCOON:031:1,2009-06-08T00:00:00Z,28.4073,-96.7122,0.0,5.9,112.0,8.9,'11111222,11111222,11111222' 
TCOON,ioos:station:TCOON:031:1,2009-06-08T01:00:00Z,28.4073,-96.7122,0.0,5.2,109.0,6.8,'11111222,11111222,11111222' 
TCOON,ioos:station:TCOON:031:1,2009-06-08T02:00:00Z,28.4073,-96.7122,0.0,5.1,110.0,6.2,'11111222,11111222,11111222' 
TCOON,ioos:station:TCOON:031:1,2009-06-08T03:00:00Z,28.4073,-96.7122,0.0,5.0,107.0,7.2,'11111222,11111222,11111222' 
TCOON,ioos:station:TCOON:031:1,2009-06-08T04:00:00Z,28.4073,-96.7122,0.0,5.5,113.0,8.0,'11111222,11111222,11111222' 
TCOON,ioos:station:TCOON:031:1,2009-06-08T05:00:00Z,28.4073,-96.7122,0.0,5.1,115.0,7.5,'11111222,11111222,11111222' 
TCOON,ioos:station:TCOON:031:1,2009-06-08T06:00:00Z,28.4073,-96.7122,0.0,4.9,113.0,6.8,'11111222,11111222,11111222' 
TCOON,ioos:station:TCOON:031:1,2009-06-08T07:00:00Z,28.4073,-96.7122,0.0,5.7,121.0,7.0,'11111222,11111222,11111222' 
TCOON,ioos:station:TCOON:031:1,2009-06-08T08:00:00Z,28.4073,-96.7122,0.0,7.8,120.0,9.7,'11111222,11111222,11111222' 
TCOON,ioos:station:TCOON:031:1,2009-06-08T09:00:00Z,28.4073,-96.7122,0.0,7.0,126.0,8.1,'11111222,11111222,11111222' 
TCOON,ioos:station:TCOON:031:1,2009-06-08T10:00:00Z,28.4073,-96.7122,0.0,6.4,117.0,7.7,'11111222,11111222,11111222' 
TCOON,ioos:station:TCOON:031:1,2009-06-08T11:00:00Z,28.4073,-96.7122,0.0,6.2,114.0,8.0,'11111222,11111222,11111222' 
TCOON,ioos:station:TCOON:031:1,2009-06-08T12:00:00Z,28.4073,-96.7122,0.0,5.8,114.0,6.9,'11111222,11111222,11111222' 
TCOON,ioos:station:TCOON:031:1,2009-06-08T13:00:00Z,28.4073,-96.7122,0.0,8.5,126.0,9.6,'11111222,11111222,11111222' 
TCOON,ioos:station:TCOON:031:1,2009-06-08T14:00:00Z,28.4073,-96.7122,0.0,9.3,129.0,10.7,'11111222,11111222,11111222' 
TCOON,ioos:station:TCOON:031:1,2009-06-08T15:00:00Z,28.4073,-96.7122,0.0,7.8,136.0,9.3,'11111222,11111222,11111222' 
TCOON,ioos:station:TCOON:031:1,2009-06-08T16:00:00Z,28.4073,-96.7122,0.0,7.2,134.0,8.6,'11111222,11111222,11111222' 
TCOON,ioos:station:TCOON:031:1,2009-06-08T17:00:00Z,28.4073,-96.7122,0.0,6.0,143.0,7.9,'11111222,11111222,11111222' 
TCOON,ioos:station:TCOON:031:1,2009-06-08T18:00:00Z,28.4073,-96.7122,0.0,5.6,142.0,7.1,'11111222,11111222,11111222' 
TCOON,ioos:station:TCOON:031:1,2009-06-08T19:00:00Z,28.4073,-96.7122,0.0,6.6,133.0,7.6,'11111222,11111222,11111222' 
TCOON,ioos:station:TCOON:031:1,2009-06-08T20:00:00Z,28.4073,-96.7122,0.0,6.4,130.0,7.4,'11111222,11111222,11111222' 
TCOON,ioos:station:TCOON:031:1,2009-06-08T21:00:00Z,28.4073,-96.7122,0.0,5.2,142.0,7.6,'11111222,11111222,11111222' 
TCOON,ioos:station:TCOON:031:1,2009-06-08T22:00:00Z,28.4073,-96.7122,0.0,4.5,120.0,6.1,'11111222,11111222,11111222' 
TCOON,ioos:station:TCOON:031:1,2009-06-08T23:00:00Z,28.4073,-96.7122,0.0,5.7,117.0,7.5,'11111222,11111222,11111222' 
TCOON,ioos:station:TCOON:031:1,2009-06-09T00:00:00Z,28.4073,-96.7122,0.0,4.7,114.0,6.2,'11111222,11111222,11111222' 
TCOON,ioos:station:TCOON:031:1,2009-06-09T01:00:00Z,28.4073,-96.7122,0.0,4.5,108.0,5.9,'11111222,11111222,11111222' 
TCOON,ioos:station:TCOON:031:1,2009-06-09T02:00:00Z,28.4073,-96.7122,0.0,3.4,98.0,3.9,'11111222,11111222,11111222' 
TCOON,ioos:station:TCOON:031:1,2009-06-09T03:00:00Z,28.4073,-96.7122,0.0,4.7,109.0,6.9,'11111222,11111222,11111222' 
TCOON,ioos:station:TCOON:031:1,2009-06-09T04:00:00Z,28.4073,-96.7122,0.0,5.1,110.0,7.4,'11111222,11111222,11111222' 
TCOON,ioos:station:TCOON:031:1,2009-06-09T05:00:00Z,28.4073,-96.7122,0.0,4.2,114.0,5.3,'11111222,11111222,11111222' 
TCOON,ioos:station:TCOON:031:1,2009-06-09T06:00:00Z,28.4073,-96.7122,0.0,3.9,108.0,4.9,'11111222,11111222,11111222' 
TCOON,ioos:station:TCOON:031:1,2009-06-09T07:00:00Z,28.4073,-96.7122,0.0,4.6,112.0,5.5,'11111222,11111222,11111222' 
TCOON,ioos:station:TCOON:031:1,2009-06-09T08:00:00Z,28.4073,-96.7122,0.0,4.2,117.0,5.7,'11111222,11111222,11111222' 
TCOON,ioos:station:TCOON:031:1,2009-06-09T09:00:00Z,28.4073,-96.7122,0.0,6.6,117.0,7.6,'11111222,11111222,11111222' 
TCOON,ioos:station:TCOON:031:1,2009-06-09T10:00:00Z,28.4073,-96.7122,0.0,5.7,122.0,6.5,'11111222,11111222,11111222' 
TCOON,ioos:station:TCOON:031:1,2009-06-09T11:00:00Z,28.4073,-96.7122,0.0,3.9,111.0,4.6,'11111222,11111222,11111222' 
TCOON,ioos:station:TCOON:031:1,2009-06-09T12:00:00Z,28.4073,-96.7122,0.0,3.2,109.0,5.1,'11111222,11111222,11111222' 
TCOON,ioos:station:TCOON:031:1,2009-06-09T13:00:00Z,28.4073,-96.7122,0.0,6.9,122.0,7.8,'11111222,11111222,11111222' 